This is the latest recevied weather packets stored in our database for station/object DC2ML-11. If no packets are shown the sender has not sent any weather packets the latest 10 day(s).
| Time | Temp. | Humidity | Pressure | Rain* | Wind** | Luminosity | Snow |
|---|---|---|---|---|---|---|---|
| 1777546595 | 18.89° C | 34% | 1028.8 hPa | - | - | - | - |
| 1777545695 | 18.33° C | 32% | 1029.1 hPa | - | - | - | - |
| 1777544794 | 17.22° C | 31% | 1029.1 hPa | - | - | - | - |
| 1777543894 | 16.67° C | 37% | 1029.2 hPa | - | - | - | - |
| 1777542994 | 16.67° C | 37% | 1029.4 hPa | - | - | - | - |
| 1777542093 | 16.11° C | 37% | 1029.3 hPa | - | - | - | - |
| 1777541193 | 16.11° C | 37% | 1029.6 hPa | - | - | - | - |
| 1777540293 | 16.11° C | 37% | 1029.8 hPa | - | - | - | - |
| 1777539401 | 16.11° C | 38% | 1029.9 hPa | - | - | - | - |
| 1777538501 | 15.56° C | 40% | 1030 hPa | - | - | - | - |
| 1777537601 | 15.56° C | 41% | 1030.1 hPa | - | - | - | - |
| 1777536701 | 15.56° C | 41% | 1030.3 hPa | - | - | - | - |
| 1777535801 | 15.56° C | 41% | 1030.3 hPa | - | - | - | - |
| 1777534901 | 15° C | 41% | 1030.4 hPa | - | - | - | - |
| 1777534000 | 15° C | 40% | 1030.6 hPa | - | - | - | - |
| 1777533100 | 15° C | 41% | 1030.7 hPa | - | - | - | - |
| 1777532201 | 15° C | 41% | 1030.8 hPa | - | - | - | - |
| 1777531300 | 15° C | 41% | 1030.7 hPa | - | - | - | - |
| 1777530400 | 15° C | 41% | 1030.7 hPa | - | - | - | - |
| 1777529500 | 15° C | 41% | 1030.7 hPa | - | - | - | - |
| 1777528600 | 15° C | 41% | 1030.6 hPa | - | - | - | - |
| 1777527700 | 15° C | 41% | 1030.6 hPa | - | - | - | - |
| 1777526800 | 15° C | 41% | 1030.5 hPa | - | - | - | - |
| 1777525900 | 15° C | 41% | 1030.5 hPa | - | - | - | - |
| 1777525000 | 15° C | 40% | 1030.3 hPa | - | - | - | - |
* Rain since midnight (hover to see other rain measurements)
** Current wind speed in m/s (hover to see current wind gust speed)